Location: Auckland
(36.8670°S, 174.7670°E)
Time: 04:01:26
(UTC+12:00)

Tiros 1 despin weight - Pass Details

Date: 19 July 2019
Orbit: 594 x 642 km, 48.2° (Epoch: 20 August)

Event Time Altitude Azimuth Distance (km) Brightness Sun altitude
Rises 01:23:20 0° 295° (WNW) 2,833 - -70.0°
Reaches altitude 10° 01:25:38 10° 291° (WNW) 1,936 - -69.7°
Maximum altitude 01:30:01 59° 211° (SSW) 698 - -69.1°
Drops below altitude 10° 01:34:28 10° 130° (SE) 1,965 - -68.4°
Sets 01:36:50 0° 126° (SE) 2,879 - -68.1°
